Location: Unspecified
(0.0000°N, 0.0000°E)
Time: 08:59:07
(UTC+00:00)

Explorer 11/Cluster Stage 4 - Pass Details

Date: 22 July 2020
Orbit: 467 x 1259 km, 28.8° (Epoch: 03 August)

Event Time Altitude Azimuth Distance (km) Brightness Sun altitude
Rises 14:52:20 0° 298° (WNW) 3,407 10.6 44.7°
Reaches altitude 10° 14:54:41 10° 297° (WNW) 2,586 10.3 44.2°
Maximum altitude 15:01:05 79° 211° (SSW) 1,074 8.0 42.8°
Drops below altitude 10° 15:08:52 10° 124° (SE) 3,112 9.3 41.1°
Sets 15:11:56 0° 123° (ESE) 4,140 9.8 40.4°
